Showing default

QIANFAN-58, 62788

Orbit data source: Space-Track

QIANFAN-58, 62788 is a Chinese payload satellite in LEO that was launched on Thu, 23 Jan 2025 UTC via a CHANG ZHENG 6A launch vehicle from the Taiyaun Space Center, China (TSC). Payload-class satellites include a variety of spacecraft equipped with specific instruments for various scientific and technological missions. These include communications satellites like Starlink; space stations such as the ISS; scientific satellites like the Hubble; Earth observation satellites from companies like Planet Labs, Umbra, and HawkEye 360; GPS; miniature CubeSats for education and research; and military/defense satellites.

Loading next visibility...
Identifier
62788, 2025-016D
Orbit
LEO
Last TLE update
14 hours ago
Origin
Manufacturer
SECM
Mission
Operational Commercial Communications
Bus & Motor
QIANFAN, Unknown motor
Mass
267 kg wet, ~267 kg dry
Launch date (UTC)
2025-01-23 (5 months ago)
Launch vehicle
CHANG ZHENG 6A
Launch site
Taiyaun Space Center, China (TSC)
Object type
Payload
Rocket body
Debris
Shape & HBR
Box + 1 Pan, 10 m
Radar Cross Section
13.200 m², Large (>1 m²)

Expand to show TLE details & history

TLE from 14 hours ago
0 QIANFAN-58
1 62788U 25016D   25181.85353291  .00000116  00000-0  16129-3 0  9998
2 62788  88.9838 120.0534 0016215  96.7274 263.5723 13.50947370 24982
Epoch: 2025-06-30T20:29Z
TLE epoch observation values (Epoch: 2025-06-30T20:29:05.243Z)
Latitude
-0.00002°
Longitude
-106.37582°
Altitude
1,073.1 km
Speed
7.315 km/s
True Right ascension
08h 00m 12s
True Declination
0° 00' 00"
Sunlit
Object was in daylight at epoch
Visualization orbit readout
Latitude
-53.528°
Longitude
-107.80344°
Altitude
1,099.901 km
Speed
7.296 km/s
Apparent Right ascension
09h 02m 54s
Apparent Declination
-48° 15' 33"
Sunlit
Object is in daylight
Visualization observer readout
Local Sidereal Time
22:04:55
Azimuth
132.071° SE
Elevation
-76.128°
Doppler factor
1
Orbital elements
Apogee altitude
1,077.897 km
Perigee altitude
1,053.756 km
Semi-major axis
7,443.963 km
Eccentricity
0.00162
Inclination
88.9838°
RAAN
120.0534°
Arg. of periapsis
96.7274°
True anomaly
Unknown
Mean anomaly
263.5723°
Eccentric anomaly
Unknown
Mean motion
3.37938 °/min
Orbital period
106.53 mins
BSTAR
0.00016129
Loading maneuver chart data...
Loading SW <> Apogee altitude chart data...
Loading historical data...
Loading historical data...
Loading historical data...
Loading historical data...
Loading historical data...
Loading historical data...
Loading historical data...

QIANFAN-58 Visibility forecast

Observer location: undefined°, undefined°

Span
Click to sort rows by Start time (UTC) header in descending order
Start Az.
Max El. time (UTC)
Max El. Az.
Max El.
End time (UTC)
End Az.
12 mins2025-07-01 19:41:28.558Z153.958° SSE2025-07-01 19:47:28.558Z84.686° E36.905°2025-07-01 19:53:28.558Z11.427° NNE
9 mins2025-07-01 21:30:28.558Z234.923° WSW2025-07-01 21:34:28.558Z281.934° WNW23.679°2025-07-01 21:39:28.558Z333.519° NNW
8 mins2025-07-02 06:53:28.558Z43.165° NE2025-07-02 06:56:28.558Z78.043° E21.513°2025-07-02 07:01:28.558Z129.061° SE
11 mins2025-07-02 08:38:28.558Z347.814° N2025-07-02 08:43:28.558Z275.325° WNW39.16°2025-07-02 08:49:28.558Z202.188° SSW
|